This demonstration page uses our WeatherBlox Daily Observations layout. Learn more.

Left ArrowRight Arrow

Hourly Observations for July 5, 2021

Temp ( °F °C ) Dew Point ( °F °C ) Humidity (%) Winds ( mph kmh ) Pressure ( in mb ) Visibility ( mi km ) Precip ( " mm )
12:53 am 00:53 Clear 70 21.1 55 12.8 59 59 NNE 23 37 29.87 1011 10 16 0.00 0.00
1:53 am 01:53 Clear 68 20 55 12.8 63 63 NNE 21 33 29.88 1012 10 16 0.00 0.00
2:53 am 02:53 Clear 67 19.4 55 12.8 66 66 NE 14 22 29.92 1013 10 16 0.00 0.00
3:53 am 03:53 Clear 66 18.9 55 12.8 68 68 ENE 14 22 29.94 1014 10 16 0.00 0.00
4:53 am 04:53 Clear 65 18.3 52 11.1 63 63 ENE 12 19 29.96 1014 10 16 0.00 0.00
5:53 am 05:53 Sunny 61 16.1 52 11.1 72 72 NW 7 11 30.00 1016 10 16 0.00 0.00
6:53 am 06:53 Sunny 64 17.8 53 11.7 68 68 NNW 8 13 30.03 1017 10 16 0.00 0.00
7:53 am 07:53 Sunny 68 20 53 11.7 59 59 N 9 15 30.05 1018 10 16 0.00 0.00
8:53 am 08:53 Sunny 71 21.7 53 11.7 53 53 NNE 13 20 30.08 1019 10 16 0.00 0.00
9:53 am 09:53 Partly Cloudy 72 22.2 53 11.7 52 52 ENE 9 15 30.08 1019 10 16 0.00 0.00
10:53 am 10:53 Partly Cloudy 75 23.9 54 12.2 48 48 NNE 9 15 30.08 1019 10 16 0.00 0.00
11:53 am 11:53 Cloudy 75 23.9 55 12.8 50 50 NNE 6 9 30.09 1019 10 16 0.00 0.00
12:53 pm 12:53 Cloudy 76 24.4 55 12.8 48 48 Calm 30.09 1019 10 16 0.00 0.00
1:53 pm 13:53 Partly Cloudy 80 26.7 54 12.2 41 41 ENE 8 13 30.07 1018 10 16 0.00 0.00
2:53 pm 14:53 Mostly Cloudy 80 26.7 54 12.2 41 41 NNE 6 9 30.07 1018 10 16 0.00 0.00
3:53 pm 15:53 Sunny 83 28.3 54 12.2 37 37 NNE 9 15 30.06 1018 10 16 0.00 0.00
4:53 pm 16:53 Mostly Cloudy 82 27.8 53 11.7 37 37 E 9 15 30.05 1018 10 16 0.00 0.00
5:53 pm 17:53 Mostly Cloudy 82 27.8 54 12.2 38 38 E 8 13 30.05 1018 10 16 0.00 0.00
6:53 pm 18:53 Mostly Cloudy 81 27.2 53 11.7 38 38 E 9 15 30.04 1017 10 16 0.00 0.00
7:53 pm 19:53 Cloudy 79 26.1 53 11.7 41 41 E 12 19 30.04 1017 10 16 0.00 0.00
8:53 pm 20:53 Cloudy 79 26.1 53 11.7 41 41 ESE 9 15 30.04 1017 10 16 0.00 0.00
9:53 pm 21:53 Cloudy 77 25 53 11.7 43 43 E 14 22 30.05 1018 10 16 0.00 0.00
10:53 pm 22:53 Mostly Cloudy 73 22.8 53 11.7 50 50 E 14 22 30.06 1018 10 16 0.00 0.00
11:53 pm 23:53 Clear 70 21.1 53 11.7 55 55 E 14 22 30.06 1018 10 16 0.00 0.00

Powered by AerisWeather